Broomfield, CO

3:34 AM MDT on August 18, 2017 (GMT -0600)
Jeffco

Weather History for KBJC - November, 2012

Change the Weather History Date:

Saturday, November 17, 2012

  Actual Average Record
Temperature  
Mean Temperature 50 °F -  
Max Temperature 62 °F 49 °F 77 °F (1999)
Min Temperature 39 °F 29 °F 14 °F (2000)
Degree Days  
Heating Degree Days 14    
Moisture  
Dew Point 23 °F    
Average Humidity 36    
Maximum Humidity 57    
Minimum Humidity 18    
Precipitation  
Precipitation 0.00 in - - ()
Sea Level Pressure  
Sea Level Pressure 30.07 in    
Wind  
Wind Speed 8 mph (West)    
Max Wind Speed 21 mph    
Max Gust Speed 29 mph    
Visibility 10 miles    
Events      
Averages and records for this station are not official NWS values.
T = Trace of Precipitation, MM = Missing Value Source: NWS Daily Summary

Daily Weather History Graph

Daily Weather History Graph

Search for Another Location

Airport or City:

Trip Planner

Search our weather history database for the weather conditions in past years. The results will help you decide how hot, cold, wet, or windy it might be!

Date:

Astronomy

Nov. 17, 2012 Rise Set
Actual Time 6:48 AM MST 4:42 PM MST
Civil Twilight 6:19 AM MST 5:11 PM MST
Nautical Twilight 5:46 AM MST 5:44 PM MST
Astronomical Twilight 5:14 AM MST 6:16 PM MST
Moon 10:34 AM MST (11/17) 8:55 PM MST (11/17)
Length of Visible Light 10h 52m
Length of Day
9h 54m
Waxing Crescent, 21% of the Moon is Illuminated
Nov 17
Waxing Crescent
Nov 20
First Quarter
Nov 28
Full
Dec 6
Last Quarter
Dec 13
New

Hourly Weather History & Observations

Time (MST) Temp. Windchill Dew Point Humidity Pressure Visibility Wind Dir Wind Speed Gust Speed Precip Events Conditions
12:16 AM 41.0 °F - 21.2 °F 45% 30.07 in 10.0 mi Calm Calm - N/A   Clear
12:36 AM 39.2 °F - 21.2 °F 49% 30.08 in 10.0 mi Calm Calm - N/A   Clear
12:56 AM 42.8 °F 38.0 °F 21.2 °F 42% 30.07 in 10.0 mi West 8.1 mph - N/A   Clear
1:16 AM 42.8 °F 38.6 °F 21.2 °F 42% 30.08 in 10.0 mi West 6.9 mph - N/A   Clear
1:36 AM 46.4 °F 39.5 °F 23.0 °F 40% 30.08 in 10.0 mi WNW 17.3 mph - N/A   Clear
1:56 AM 50.0 °F - 23.0 °F 35% 30.08 in 10.0 mi WNW 20.7 mph - N/A   Clear
2:16 AM 50.0 °F - 24.8 °F 37% 30.07 in 10.0 mi WNW 19.6 mph - N/A   Clear
2:36 AM 50.0 °F - 24.8 °F 37% 30.07 in 10.0 mi NW 16.1 mph - N/A   Clear
2:55 AM 50.0 °F - 24.8 °F 37% 30.07 in 10.0 mi WNW 19.6 mph - N/A   Clear
3:16 AM 50.0 °F - 23.0 °F 35% 30.07 in 10.0 mi WNW 17.3 mph - N/A   Clear
3:36 AM 51.8 °F - 21.2 °F 30% 30.07 in 10.0 mi WNW 15.0 mph 19.6 mph N/A   Clear
3:56 AM 50.0 °F - 23.0 °F 35% 30.07 in 10.0 mi WNW 16.1 mph - N/A   Clear
4:16 AM 50.0 °F - 23.0 °F 35% 30.08 in 10.0 mi West 5.8 mph - N/A   Clear
4:36 AM 42.8 °F 40.1 °F 23.0 °F 46% 30.08 in 10.0 mi South 4.6 mph - N/A   Clear
4:56 AM 44.6 °F 42.2 °F 23.0 °F 43% 30.09 in 10.0 mi SSW 4.6 mph - N/A   Clear
5:55 AM 44.6 °F 39.2 °F 23.0 °F 43% 30.09 in 20.0 mi WSW 10.4 mph - N/A   Partly Cloudy
6:47 AM 53.6 °F - 23.0 °F 30% 30.09 in 60.0 mi WSW 20.7 mph 26.5 mph N/A   Partly Cloudy
7:49 AM 55.4 °F - 21.2 °F 26% 30.11 in 60.0 mi WSW 20.7 mph 28.8 mph N/A   Scattered Clouds
8:51 AM 57.2 °F - 21.2 °F 25% 30.12 in 60.0 mi WSW 20.7 mph 27.6 mph N/A   Scattered Clouds
10:51 AM 59.0 °F - 23.0 °F 25% 30.12 in 60.0 mi North 5.8 mph - N/A   Partly Cloudy
11:51 AM 60.8 °F - 21.2 °F 22% 30.09 in 60.0 mi East 3.5 mph - N/A   Partly Cloudy
12:48 PM 60.8 °F - 21.2 °F 22% 30.08 in 60.0 mi Calm Calm - N/A   Scattered Clouds
1:45 PM 62.6 °F - 21.2 °F 20% 30.07 in 50.0 mi East 4.6 mph - N/A   Scattered Clouds
2:47 PM 62.6 °F - 17.6 °F 18% 30.06 in 50.0 mi ESE 8.1 mph - N/A   Scattered Clouds
3:47 PM 59.0 °F - 21.2 °F 23% 30.07 in 70.0 mi East 8.1 mph - N/A   Scattered Clouds
4:49 PM 55.4 °F - 21.2 °F 26% 30.07 in 70.0 mi East 6.9 mph - N/A   Scattered Clouds
5:49 PM 55.4 °F - 21.2 °F 26% 30.07 in 30.0 mi Calm Calm - N/A   Scattered Clouds
6:51 PM 53.6 °F - 21.2 °F 28% 30.07 in 30.0 mi Variable 4.6 mph - N/A   Scattered Clouds
7:46 PM 50.0 °F - 26.6 °F 40% 30.06 in 30.0 mi NW 9.2 mph - N/A   Scattered Clouds
8:50 PM 46.4 °F 41.9 °F 24.8 °F 43% 30.05 in 30.0 mi WNW 9.2 mph - N/A   Scattered Clouds
9:47 PM 42.8 °F 41.1 °F 26.6 °F 53% 30.05 in 30.0 mi Variable 3.5 mph - N/A   Scattered Clouds
10:16 PM 41.0 °F 39.0 °F 26.6 °F 57% 30.05 in 10.0 mi West 3.5 mph - N/A   Clear
10:36 PM 42.8 °F 40.1 °F 24.8 °F 49% 30.05 in 10.0 mi West 4.6 mph - N/A   Clear
10:55 PM 42.8 °F 40.1 °F 23.0 °F 46% 30.05 in 10.0 mi West 4.6 mph - N/A   Clear
11:16 PM 42.8 °F - 23.0 °F 46% 30.04 in 10.0 mi Calm Calm - N/A   Clear
11:36 PM 42.8 °F 39.3 °F 23.0 °F 46% 30.05 in 10.0 mi West 5.8 mph - N/A   Clear
11:56 PM 44.6 °F - 23.0 °F 43% 30.05 in 10.0 mi Calm Calm - N/A   Clear